Tracking 29892 objects as of 21-Nov-2024
HD Live streaming from Space Station
objects crossing your sky now

STARLINK-3825

Track STARLINK-3825 now!
10-day predictions
STARLINK-3825 is classified as:


NORAD ID: 52478
Int'l Code: 2022-049AD
Perigee: 545.9 km
Apogee: 547.8 km
Inclination: 53.2 °
Period: 95.4 minutes
Semi major axis: 6917 km
RCS: Unknown
Launch date: May 6, 2022
Source: United States (US)
Launch site: AIR FORCE EASTERN TEST RANGE (AFETR)
Your satellite tracking list
Your tracking list is empty




NASA's NSSDC Master Catalog

Two Line Element Set (TLE):
1 52478U 22049AD  24325.55169004  .00000155  00000-0  27837-4 0  9991
2 52478  53.2178  27.6111 0001360  93.7582 266.3565 15.08845323140834
Source of the keplerian elements: AFSPC